Regional Weather Roundup
Issued by NWS Little Rock, AR

Home | Current Version | Previous Version | Graphics & Text | Print | Product List | Glossary On
Versions: 1 2 3 4 5 6 7 8 9 10 11 12 13 14 15 16 17 18 19 20 21 22 23 24 25 26 27 28 29 30 31 32 33 34 35 36 37 38 39 40 41 42 43 44 45 46 47 48 49 50
000
ASUS44 KLZK 302305
RWRLZK

WEATHER ROUNDUP FOR ARKANSAS
NATIONAL WEATHER SERVICE LITTLE ROCK AR
600 PM CDT SAT JUL 30 2016

NOTE: "FAIR" INDICATES FEW OR NO CLOUDS BELOW 12,000 FEET WITH NO
SIGNIFICANT WEATHER AND/OR OBSTRUCTIONS TO VISIBILITY.

ARZ001-003-010-029-310000-
NORTHWEST ARKANSAS

CITY           SKY/WX    TMP DP  RH WIND       PRES   REMARKS
FAYETTEVILLE   CLOUDY    79  72  79 SE3       29.99R
FORT SMITH     CLOUDY    84  70  62 S7        29.94F HX  88
HARRISON       CLOUDY    75  70  84 S7        29.99S
BENTONVILLE    CLOUDY    77  66  69 S7        29.99R
ROGERS         CLOUDY    75  69  81 SE7       29.99R
SILOAM SPGS    PTSUNNY   75  63  64 SE6       29.99R
HIGHFILL       CLOUDY    76  70  82 S6        29.98R
SPRINGDALE     SUNNY     75  70  83 SE7       30.00R
$$

ARZ004-005-016-310000-
NORTH CENTRAL ARKANSAS

CITY           SKY/WX    TMP DP  RH WIND       PRES   REMARKS
BATESVILLE     CLOUDY    82  73  74 NE3       29.95F HX  88
FLIPPIN        CLOUDY    75  70  83 S3        29.93S
MTN HOME       LGT RAIN  76  73  91 SW6       29.95F
$$

ARZ040-041-310000-
WEST CENTRAL ARKANSAS

CITY           SKY/WX    TMP DP  RH WIND       PRES   REMARKS
MENA             N/A    N/A N/A N/A MISG        N/A
MOUNT IDA      LGT RAIN  73  72  96 CALM      29.97F
$$

ARZ009-017-025-026-028-310000-
NORTHEAST ARKANSAS

CITY           SKY/WX    TMP DP  RH WIND       PRES   REMARKS
CORNING          N/A     82  77  83 S5        29.95F HX  91
JONESBORO      MOSUNNY   88  72  58 E3        29.95S HX  94
NEWPORT        CLOUDY    85  78  79 SE3       29.97R HX  96
WALNUT RIDGE   CLOUDY    86  72  62 SE6       29.94R HX  92
BLYTHEVILLE    MOSUNNY   87  73  62 SW3       29.96S HX  94
$$

ARZ022-023-033-042-044-310000-
CENTRAL ARKANSAS

CITY           SKY/WX    TMP DP  RH WIND       PRES   REMARKS
LITTLE ROCK    TSTM      76  71  85 NW12G22   30.05R
JACKSONVILLE   TSTM      73  72  94 S7        30.03R
SEARCY         CLOUDY    77  73  87 SE3       29.92F
HOT SPRINGS    LGT RAIN  74  72  93 W5        30.00F
RUSSELLVILLE   CLOUDY    76  70  82 S3        29.98S
$$

ARZ036-310000-
EAST ARKANSAS

CITY           SKY/WX    TMP DP  RH WIND       PRES   REMARKS
WEST MEMPHIS   SUNNY     87  73  62 CALM      29.95S HX  94
$$

ARZ050-053-066-070-073-310000-
SOUTHWEST ARKANSAS

CITY           SKY/WX    TMP DP  RH WIND       PRES   REMARKS
ARKADELPHIA    TSTM      74  72  93 W10G21    30.01R FOG
CAMDEN         PTSUNNY   82  66  57 NW17G25   30.03R HX  85
TEXARKANA      PTSUNNY   84  71  65 N16G22    29.98S THUNDER HX  89
EL DORADO      CLOUDY    86  73  65 S12       29.97R HX  93
DE QUEEN       CLOUDY    75  72  90 E7        29.94F
$$

ARZ056-057-069-310000-
SOUTHEAST ARKANSAS

CITY           SKY/WX    TMP DP  RH WIND       PRES   REMARKS
PINE BLUFF     SUNNY     89  73  59 NW5       29.95F HX  97
STUTTGART      MOSUNNY   88  73  62 N9        29.98R HX  96
MONTICELLO     MOSUNNY   87  73  62 E12       29.96S HX  94

$$





USA.gov is the U.S. government's official web portal to all federal, state and local government web resources and services.